Flag for Germany Weather past 2 weeks in Wesseling, North Rhine-Westphalia, Germany

Now
43 °F

Fog.


Feels Like: 43 °F
Forecast: 45 / 62 °F
Wind: 1 mph from Southeast

Location: Koeln / Bonn

Current Time: Sep 23, 2014 at 5:19:44 AM

Latest Report: Sep 23, 2014 at 5:00 AM


Visibility: 6 mi

Pressure: 30.19 "Hg

Humidity: 97%

Dew point: 42 °F

Location of WesselingLocation

Historic Weather in Wesseling — Graph

°F

Wesseling temperature yesterday

Maximum temperature yesterday: 60 °F (at 5:00 PM)
Minimum temperature yesterday: 48 °F (at 11:00 PM)
Average temperature yesterday: 54 °F

Past Weeks' High & Low Weather Summary

 TemperatureHumidityPressure
High76 °F (Sep 17, 5:00 PM)99% (Sep 8, 7:00 AM)30.24 "Hg (Sep 8, 7:00 AM)
Low44 °F (Sep 12, 4:00 AM)51% (Sep 11, 6:00 PM)29.83 "Hg (Sep 18, 6:00 PM)
Average61 °F83%30.04 "Hg
* Reported Sep 8 4:00 AM — Sep 23 4:00 AM, Wesseling, Weather by CustomWeather, © 2014

Note: Actual official high and low records may vary slightly from our data, if they occured in-between our weather recording intervals... More about our weather records

Advertising

Wesseling weather history for previous 24 hours

 ConditionsComfort  
Time TempWeatherWind HumidityBarometerVisibility
4:00 AM
Sep 23
44 °FFog.1 mph97%30.19 "Hg17 mi
3:00 AM45 °FFog.1 mph98%30.20 "Hg19 mi
2:00 AM45 °FFog.1 mph96%30.20 "Hg19 mi
1:00 AM46 °FFog.1 mph96%30.20 "Hg19 mi
12:00 AM47 °FClear.1 mph93%30.19 "Hg22 mi
11:00 PM
Sep 22
48 °FClear.3 mph93%30.19 "Hg22 mi
10:00 PM50 °FClear.3 mph86%30.18 "Hg22 mi
9:00 PM52 °FPassing clouds.3 mph83%30.16 "Hg22 mi
8:00 PM53 °FPassing clouds.3 mph80%30.14 "Hg19 mi
7:00 PM56 °FScattered clouds.5 mph68%30.13 "Hg25 mi
6:00 PM59 °FScattered clouds.5 mph61%30.12 "Hg25 mi
5:00 PM60 °FPassing clouds.7 mph65%30.11 "Hg25 mi
4:00 PM56 °FPassing clouds.6 mph78%30.12 "Hg25 mi
3:00 PM51 °FThunderstorms. Scattered clouds.5 mph87%30.12 "Hg12 mi
2:00 PM56 °FOvercast.9 mph76%30.10 "Hg7 mi
1:00 PM58 °FOvercast.10 mph64%30.08 "Hg17 mi
12:00 PM58 °FOvercast.7 mph69%30.09 "Hg11 mi
11:00 AM56 °FOvercast.6 mph76%30.11 "Hg9 mi
10:00 AM55 °FLight rain. Overcast.6 mph75%30.11 "Hg9 mi
9:00 AM54 °FOvercast.3 mph81%30.11 "Hg7 mi
8:00 AM54 °FOvercast.3 mph83%30.12 "Hg7 mi
7:00 AM53 °FOvercast.3 mph86%30.12 "Hg9 mi
6:00 AM54 °FPassing clouds.3 mph88%30.12 "Hg12 mi
5:00 AM54 °FOvercast.3 mph92%30.12 "Hg12 mi
Weather by CustomWeather, © 2014

See weather overviewHow to use our weather pages